Regional Weather Roundup
Issued by NWS

Home | Current Version | Previous Version | Text Only | Print | Product List | Glossary Off
Versions: 1 2 3 4 5 6 7 8 9 10 11 12 13 14 15 16 17 18 19 20 21 22 23 24 25 26 27 28 29 30 31 32 33 34 35 36 37 38 39 40 41 42 43 44 45 46 47 48 49 50

000
ASUS43 KLSX 070959
RWRMO

WEATHER SUMMARY FOR MISSOURI
NATIONAL WEATHER SERVICE SPRINGFIELD MO
500 AM CDT TUE JUL 07 2015

NOTE: "FAIR" INDICATES FEW OR NO CLOUDS BELOW 12,000 FEET WITH NO
       SIGNIFICANT WEATHER AND/OR OBSTRUCTIONS TO VISIBILITY.
       CURRENT SKY AND/OR WEATHER CONDITIONS ARE NOT AVAILABLE FOR
       CHILLICOTHE AND FARMINGTON.

MOZ001>031-035>038-043-044-053-054-071100-
...NORTHERN AND WESTERN MISSOURI...

CITY           SKY/WX    TMP DP  RH WIND       PRES   REMARKS
KANSAS CTY INT RAIN      61  60  97 NE7       30.01S FOG
KANSAS C DTWN  LGT RAIN  62  61  96 NE10      30.00S FOG
LEE`S SUMMIT   CLOUDY    61  58  90 NE15      29.99R FOG
ST JOSEPH      CLOUDY    66  62  87 MISG      30.02S FOG
CHILLICOTHE      N/A     64  62  93 CALM      30.01F
KIRKSVILLE     LGT RAIN  63  57  81 N12       29.98R

$$
MOZ066>068-077>081-088>096-101>105-071100-
...SOUTHWEST MISSOURI...

CITY           SKY/WX    TMP DP  RH WIND       PRES   REMARKS
SPRINGFIELD    LGT RAIN  74  71  91 SW5       29.94S
JOPLIN         CLOUDY    73  71  93 CALM      29.94S FOG

$$
MOZ032>034-039>042-045>050-055>058-069>072-071100-
...CENTRAL MISSOURI...

CITY           SKY/WX    TMP DP  RH WIND       PRES   REMARKS
COLUMBIA       CLOUDY    71  70  96 NW6       29.91F
ROLLA          CLOUDY    70  69  97 SW9       29.93F
SEDALIA        CLOUDY    68  66  93 N14G22    29.95R FOG
OSAGE BEACH    CLOUDY    72  68  88 S5        29.94R

$$
MOZ051-052-059>065-071100-
...EAST CENTRAL MISSOURI...

CITY           SKY/WX    TMP DP  RH WIND       PRES   REMARKS
ST LOUIS INTL  LGT RAIN  78  69  73 W8        29.89S
SPIRIT OF STL  LGT RAIN  73  72  96 SW5       29.88S
ST CHARLES     LGT RAIN  75  73  93 NW5       29.87S

$$
MOZ072>076-082>087-097>100-106>115-071100-
...SOUTH CENTRAL AND SOUTHEAST MISSOURI...

CITY           SKY/WX    TMP DP  RH WIND       PRES   REMARKS
CAPE GIRARDEAU CLOUDY    75  73  93 SW9       29.94R
FARMINGTON     CLOUDY    75  72  88 SW7       29.97S
POPLAR BLUFF   CLOUDY    77  75  93 SW10      29.93F
WEST PLAINS    CLOUDY    76  71  85 SW6       29.97F

$$


USA.gov is the U.S. government's official web portal to all federal, state and local government web resources and services.